Home   Weather   Coral Harbour   Past weeks

Flag for Canada Past Weather in Coral Harbour, Nunavut, Canada — Yesterday and Last 2 Weeks

Now
-8 °F

Snow flurries. Passing clouds.


Feels Like: -23 °F
Forecast: -25 / -9 °F
Wind: 8 mph from Northwest

Location: Coral Harbour

Current Time: Feb 19, 2017 at 11:10:11 pm

Latest Report: Feb 19, 2017 at 10:00 pm


Visibility: 15 mi

Pressure: 30.11 "Hg

Humidity: 77%

Dew Point: -13 °F

Location of Coral HarbourLocation

Past Weather in Coral Harbour — Graph

°F

Coral Harbour Temperature Yesterday

Maximum temperature yesterday: 1 °F (at 4:00 am)
Minimum temperature yesterday: -17 °F (at 11:00 pm)
Average temperature yesterday: -6 °F

High & Low Weather Summary for the Past Weeks

 TemperatureHumidityPressure
High1 °F (Feb 18, 4:00 am)85% (Feb 18, 4:00 am)30.24 "Hg (Feb 18, 4:00 am)
Low-45 °F (Feb 12, 12:00 am)64% (Feb 11, 6:00 am)29.44 "Hg (Feb 9, 12:00 am)
Average-23 °F72%29.87 "Hg
* Reported Feb 4 9:00 pm — Feb 19 9:00 pm, Coral Harbour, Weather by CustomWeather, © 2017

Note: Actual official high and low records may vary slightly from our data, if they occured in-between our weather recording intervals... More about our weather records

Advertising

Coral Harbour Weather History for the Previous 24 Hours

Scroll right to see more
 ConditionsComfort  
Time TempWeatherWind HumidityBarometerVisibility
9:00 pm
Sun, Feb 19
-8 °FSnow flurries. Passing clouds.15 mph77%30.10 "Hg15 mi
8:00 pm-13 °FSnow flurries. Passing clouds.15 mph76%30.10 "Hg15 mi
7:00 pm-11 °FSnow flurries. Passing clouds.12 mph76%30.11 "Hg15 mi
6:00 pm-8 °FSnow flurries. Scattered clouds.13 mph77%30.09 "Hg15 mi
5:00 pm-4 °FSnow flurries. Passing clouds.6 mph84%30.08 "Hg15 mi
4:00 pm-2 °FSnow flurries. Passing clouds.15 mph84%30.07 "Hg15 mi
3:00 pm-4 °FSnow flurries. Scattered clouds.12 mph84%30.06 "Hg15 mi
2:00 pm-6 °FSnow flurries. Passing clouds.8 mph84%30.06 "Hg15 mi
1:00 pm-6 °FSnow flurries. Passing clouds.3 mph77%30.04 "Hg15 mi
12:00 pm-8 °FSnow flurries. Passing clouds.8 mph84%30.03 "Hg15 mi
11:00 am-9 °FSnow flurries. Passing clouds.8 mph77%30.04 "Hg15 mi
10:00 am-11 °FSnow flurries. Passing clouds.9 mph76%30.04 "Hg15 mi
9:00 am-13 °FSnow flurries. Passing clouds.8 mph76%30.03 "Hg15 mi
8:00 am-11 °FSnow flurries. Passing clouds.9 mph84%30.03 "Hg15 mi
7:00 am-13 °FSnow flurries. Passing clouds.13 mph76%30.03 "Hg15 mi
6:00 am-17 °FSnow flurries. Passing clouds.13 mph76%30.03 "Hg15 mi
5:00 am-15 °FSnow flurries. Passing clouds.14 mph76%30.03 "Hg15 mi
4:00 am-17 °FSnow flurries. Passing clouds.15 mph76%30.01 "Hg15 mi
3:00 am-17 °FSnow flurries. Passing clouds.13 mph76%30.02 "Hg15 mi
2:00 am-17 °FSnow flurries. Passing clouds.10 mph76%30.01 "Hg15 mi
1:00 am-13 °FSnow flurries. Clear.7 mph76%30.02 "Hg15 mi
12:00 am-13 °FSnow flurries. Passing clouds.12 mph83%30.02 "Hg15 mi
11:00 pm
Sat, Feb 18
-17 °FSnow flurries. Clear.10 mph76%30.02 "Hg15 mi
Weather by CustomWeather, © 2017

See weather overviewHow to use our weather pages